Vorticity
7 6 7 10 10 8 7 8 9 5 2 3 4 6 21 26 26 25 19 16 13 16
7 8 10 10 10 9 9 10 10 9 7 0 3 2 -2 16 23 25 31 27 16 12
6 8 9 9 9 9 9 9 8 9 7 13 0 4 4 -2 5 18 21 35 29 22
8 10 8 10 11 11 10 9 9 9 10 8 8 2 7 5 6 -5 10 21 40 32
12 8 10 11 12 11 11 10 10 9 9 9 9 9 6 8 3 14 -3 -4 13 34
7 10 10 11 11 10 10 9 9 8 9 8 8 9 8 8 6 5 9 8 -0 -3
7 9 11 10 10 9 10 10 10 11 10 10 10 10 11 8 8 8 6 5 9 7
11 12 11 10 10 10 11 11 10 11 11 10 9 11 11 10 9 9 9 8 7 5
11 10 8 9 11 11 10 10 11 10 11 11 11 11 10 9 9 9 9 10 10 9
8 7 8 11 10 10 9 10 9 9 9 9 8 9 8 8 7 7 7 8 8 8
8 9 10 9 9 9 9 10 9 9 9 9 9 8 7 7 6 6 6 6 6 6
10 7 10 9 9 10 9 8 8 8 6 6 6 6 6 6 5 5 5 5 6 5
8 10 7 8 9 8 7 6 6 6 6 5 5 6 5 4 4 3 4 4 4 5
8 5 9 9 8 7 7 7 6 5 5 5 5 5 5 5 5 5 5 5 5 6
Height
3057 3054 3051 3048 3045 3042 3038 3034 3030 3026 3020 3014 3007 2999 2990 2982 2974 2969 2966 2965 2963 2962
3052 3050 3047 3045 3042 3038 3035 3032 3028 3024 3019 3014 3009 3001 2994 2987 2978 2969 2964 2960 2959 2958
3048 3046 3044 3041 3038 3036 3032 3029 3026 3021 3017 3012 3007 3001 2995 2989 2979 2970 2963 2958 2954 2953
3045 3043 3041 3038 3035 3033 3030 3027 3023 3019 3015 3012 3006 3001 2996 2990 2983 2975 2967 2961 2955 2951
3041 3039 3037 3035 3032 3030 3028 3024 3021 3017 3014 3011 3006 3002 2997 2992 2985 2979 2973 2965 2959 2953
3038 3036 3034 3032 3030 3027 3025 3022 3019 3016 3013 3009 3006 3002 2998 2993 2987 2982 2977 2971 2965 2959
3035 3033 3032 3029 3027 3025 3023 3021 3018 3016 3012 3008 3005 3001 2997 2993 2988 2984 2979 2974 2969 2964
3032 3031 3029 3027 3025 3023 3021 3019 3017 3014 3011 3008 3005 3002 2997 2993 2989 2985 2980 2976 2972 2967
3029 3028 3026 3025 3023 3022 3020 3018 3016 3013 3011 3008 3005 3002 2998 2994 2990 2987 2983 2979 2974 2970
3027 3026 3025 3023 3022 3021 3019 3017 3015 3013 3011 3008 3005 3002 2999 2995 2992 2988 2985 2981 2977 2973
3025 3024 3023 3022 3021 3020 3018 3017 3015 3013 3011 3008 3005 3002 2999 2996 2992 2989 2986 2983 2979 2976
3023 3022 3022 3021 3020 3019 3018 3016 3014 3013 3010 3008 3005 3002 2999 2996 2992 2989 2985 2982 2980 2977
3020 3020 3020 3019 3019 3018 3017 3015 3013 3011 3009 3007 3005 3002 2998 2995 2992 2988 2984 2981 2977 2974
3018 3018 3018 3017 3017 3016 3015 3013 3011 3010 3008 3005 3003 3000 2997 2994 2991 2987 2984 2980 2976 2973